0 HST 1 20580U 90037B 26177.27036609 .00007290 00000-0 22994-3 0 9997 2 20580 28.4732 18.4928 0001404 251.2839 108.7605 15.30848043789966 0 ISS (ZARYA) 1 25544U 98067A 26177.15504249 .00009461 00000-0 17697-3 0 9996 2 25544 51.6325 255.7018 0004359 233.1468 126.9121 15.49434804573144 0 CXO 1 25867U 99040B 26179.95532601 .00000592 00000-0 00000-0 0 9992 2 25867 56.3077 116.3625 7815439 310.1470 0.3486 0.37796038 17366